Retour au catalogue

STARLINK-31663

ActifCommunicationsVLEO
NORAD 59576·PAYLOAD·🇺🇸 United States

Lancé Apr 23, 2024 depuis Cape Canaveral Space Force Station

Loading…

Prochains Passages (prochaines 24 heures)

TLE

FraisSource: CelesTrak SupGP

Époque: Sep 14, 2026, 20:43 UTC

1 59576C 24076N   26257.86368056  .00046366  00000+0  16793-2 0  2574
2 59576  43.0042  20.9098 0001767 273.8066   0.7424 15.27556278    14

Suivez STARLINK-31663 en temps réel avec AllMySat

Download on the App Store